COSMOS 2251 DEB, 36047

Orbit data source: Space-Track

COSMOS 2251 DEB, 36047 is space debris in LEO originally from a launch on Wed, 16 Jun 1993 UTC launched from the Plesetsk Missile And Space Complex (PKMTR). The debris from Iridium 33, an American commercial communications satellite, has been tracked extensively since its accidental collision with the defunct Russian satellite Cosmos 2251 in 2009. This event, occurring at high speed in low Earth orbit (LEO), generated thousands of pieces of space debris, significantly increasing the risk of further collisions. The Iridium 33 debris cloud has impacted space traffic management and orbital debris mitigation strategies, making it a subject of ongoing study in space situational awareness.

Loading next visibility...
Identifier
36047, 1993-036AXJ
Orbit
LEO
Country
Flag of CISCIS
Related business
Manufacturer
Unknown
Mission
Spacecraft
Bus & Motor
Unknown
Mass
Unknown
Launch date (UTC)
1993-06-16 (33 years ago)
Launch vehicle
Unknown
Launch site
Plesetsk Missile And Space Complex (PKMTR)
Object type
Payload
Rocket body
Debris
Shape & HBR
Unknown shape, 0.1 m
Radar Cross Section
Small (<0.1 m²)

Expand to show TLE details & history
Last TLE update: 21 hours ago

TLE from 21 hours ago
0 COSMOS 2251 DEB
1 36047U 93036AXJ 26207.75116722  .00037137  00000-0  21987-2 0  9999
2 36047  74.0284 231.8270 0009033 267.5590  92.4568 15.11215846693375
Epoch: 2026-07-26T18:01Z
TLE epoch observation values (Epoch: 2026-07-26T18:01:40.847Z)
Latitude
-0.0001°
Longitude
16.96217°
Altitude
535.465 km
Speed
7.595 km/s
True Right ascension
15h 27m 18s
True Declination
0° 00' 00"
Sunlit
Object was in daylight at epoch
Visualization orbit readout
Latitude
Unknown
Longitude
Unknown
Altitude
Unknown
Speed
Unknown
Apparent Right ascension
Unknown
Apparent Declination
Unknown
Sunlit
N/A
Visualization observer readout
Local Sidereal Time
03:53:02
Azimuth
Unknown
Elevation
Unknown
Doppler factor
Unknown
Orbital elements
Apogee altitude
536.273 km
Perigee altitude
523.793 km
Semi-major axis
6,908.17 km
Eccentricity
0.0009
Inclination
74.0284°
RAAN
231.827°
Arg. of periapsis
267.559°
True anomaly
92.56021°
Mean anomaly
92.4568°
Eccentric anomaly
92.50851°
Mean motion
3.78006 °/min
Orbital period
95.24 mins
BSTAR
0.0021987
Loading maneuver chart data...
Computing Atmospheric mass density...

Documentation

Showing up to 5 results
|